STARLINK-5321, 55302

Orbit data source: Space-Track

STARLINK-5321, 55302 is a payload satellite owned by SpaceX/Seattle (US) in LEO that was launched on Thu, 19 Jan 2023 UTC via an FALCON 9 launch vehicle from the Air Force Western Test Range (AFWTR). Payload-class satellites include a variety of spacecraft equipped with specific instruments for various scientific and technological missions. These include communications satellites like Starlink; space stations such as the ISS; scientific satellites like the Hubble; Earth observation satellites from companies like Planet Labs, Umbra, and HawkEye 360; GPS; miniature CubeSats for education and research; and military/defense satellites.

Loading next visibility...
Identifier
55302, 2023-010AK
Orbit
LEO
Country
Flag of USUS
Related business
Manufacturer
SpaceX/Seattle
Mission
Operational Commercial Communications
Bus & Motor
STARLINK, Unknown motor
Mass
305 kg wet, ~290 kg dry
Launch date (UTC)
2023-01-19 (3 years ago)
Launch vehicle
FALCON 9
Launch site
Air Force Western Test Range (AFWTR)
Object type
Payload
Rocket body
Debris
Shape & HBR
Box + 1 Pan, 10.1 m
Radar Cross Section
13.562 m², Large (>1 m²)

Expand to show TLE details & history
Last TLE update: 2 days ago

TLE from 2 days ago
0 STARLINK-5321
1 55302U 23010AK  26171.18111706 -.00000952  00000-0 -71973-4 0  9992
2 55302  69.9996 125.9441 0002993 270.7428  89.3388 14.98338184188627
Epoch: 2026-06-20T04:20Z
TLE epoch observation values (Epoch: 2026-06-20T04:20:48.513Z)
Latitude
-0.00007°
Longitude
152.34251°
Altitude
574.431 km
Speed
7.574 km/s
True Right ascension
08h 23m 46s
True Declination
0° 00' 00"
Sunlit
Object was in daylight at epoch
Visualization orbit readout
Latitude
Unknown
Longitude
Unknown
Altitude
Unknown
Speed
Unknown
Apparent Right ascension
Unknown
Apparent Declination
Unknown
Sunlit
N/A
Visualization observer readout
Local Sidereal Time
21:27:36
Azimuth
Unknown
Elevation
Unknown
Doppler factor
Unknown
Orbital elements
Apogee altitude
572.058 km
Perigee altitude
567.899 km
Semi-major axis
6,948.116 km
Eccentricity
0.0003
Inclination
69.9996°
RAAN
125.9441°
Arg. of periapsis
270.7428°
True anomaly
89.3731°
Mean anomaly
89.3388°
Eccentric anomaly
89.35595°
Mean motion
3.74751 °/min
Orbital period
96.06 mins
BSTAR
-0.000071973
Loading maneuver chart data...
Computing Atmospheric mass density...
Loading historical data...
Loading historical data...
Loading historical data...
Loading historical data...
Loading historical data...
Loading historical data...
Loading historical data...

Documentation

Showing up to 5 results
|